Time,TemperatureF,DewpointF,PressureIn,WindDirection,WindDirectionDegrees,WindSpeedMPH,WindSpeedGustMPH,Humidity,HourlyPrecipIn,Conditions,Clouds,dailyrainin,SoftwareType,DateUTC
2014-03-18 00:08:00,53.0,31.6,29.77,SE,139,6.0,6.0,44,0.00,,,0.00,Wunderground v.1.15,2014-03-18 05:08:00,
2014-03-18 00:18:00,52.7,31.4,29.77,SSE,159,4.0,5.0,44,0.00,,,0.00,Wunderground v.1.15,2014-03-18 05:18:00,
2014-03-18 00:28:00,52.2,30.9,29.77,SSE,165,3.0,4.0,44,0.00,,,0.00,Wunderground v.1.15,2014-03-18 05:28:00,
2014-03-18 00:38:00,52.5,30.6,29.77,SSE,164,4.0,4.0,43,0.00,,,0.00,Wunderground v.1.15,2014-03-18 05:38:00,
2014-03-18 00:48:00,52.2,30.9,29.77,SSE,163,3.0,3.0,44,0.00,,,0.00,Wunderground v.1.15,2014-03-18 05:48:00,
2014-03-18 00:58:00,52.2,30.4,29.77,SSE,148,4.0,4.0,43,0.00,,,0.00,Wunderground v.1.15,2014-03-18 05:58:00,
2014-03-18 01:08:00,52.4,30.0,29.77,SSE,155,4.0,6.0,42,0.00,,,0.00,Wunderground v.1.15,2014-03-18 06:08:00,
2014-03-18 01:18:00,52.7,30.8,29.76,SSE,166,6.0,6.0,43,0.00,,,0.00,Wunderground v.1.15,2014-03-18 06:18:00,
2014-03-18 01:27:00,52.2,30.9,29.76,SSE,161,5.0,5.0,44,0.00,,,0.00,Wunderground v.1.15,2014-03-18 06:27:00,
2014-03-18 01:38:00,51.8,31.1,29.77,SE,141,6.0,6.0,45,0.00,,,0.00,Wunderground v.1.15,2014-03-18 06:38:00,
2014-03-18 01:48:00,51.2,31.1,29.78,SSE,153,4.0,4.0,46,0.00,,,0.00,Wunderground v.1.15,2014-03-18 06:48:00,
2014-03-18 01:58:00,50.7,31.2,29.78,SSE,155,5.0,8.0,47,0.00,,,0.00,Wunderground v.1.15,2014-03-18 06:58:00,
2014-03-18 02:08:00,50.6,31.1,29.77,SSE,155,5.0,8.0,47,0.00,,,0.00,Wunderground v.1.15,2014-03-18 07:08:00,
2014-03-18 02:18:00,50.3,31.3,29.77,SSE,163,5.0,5.0,48,0.00,,,0.00,Wunderground v.1.15,2014-03-18 07:18:00,
2014-03-18 02:28:00,50.1,31.2,29.77,SSE,163,4.0,5.0,48,0.00,,,0.00,Wunderground v.1.15,2014-03-18 07:28:00,
2014-03-18 02:38:00,49.6,31.7,29.77,SSE,156,4.0,4.0,50,0.00,,,0.00,Wunderground v.1.15,2014-03-18 07:38:00,
2014-03-18 02:47:00,49.4,31.5,29.77,SSE,158,4.0,4.0,50,0.00,,,0.00,Wunderground v.1.15,2014-03-18 07:47:00,
2014-03-18 02:57:00,49.3,31.4,29.77,SSE,158,4.0,5.0,50,0.00,,,0.00,Wunderground v.1.15,2014-03-18 07:57:00,
2014-03-18 03:07:00,49.1,31.2,29.76,SSE,162,3.0,3.0,50,0.00,,,0.00,Wunderground v.1.15,2014-03-18 08:07:00,
2014-03-18 03:17:00,49.0,31.2,29.75,SSE,162,4.0,4.0,50,0.00,,,0.00,Wunderground v.1.15,2014-03-18 08:17:00,
2014-03-18 03:27:00,48.8,31.0,29.75,SSE,167,4.0,5.0,50,0.00,,,0.00,Wunderground v.1.15,2014-03-18 08:27:00,
2014-03-18 03:37:00,48.8,31.5,29.75,SE,138,4.0,4.0,51,0.00,,,0.00,Wunderground v.1.15,2014-03-18 08:37:00,
2014-03-18 03:47:00,49.1,31.2,29.75,SSE,155,4.0,4.0,50,0.00,,,0.00,Wunderground v.1.15,2014-03-18 08:47:00,
2014-03-18 03:57:00,49.4,31.0,29.75,SSE,163,4.0,4.0,49,0.00,,,0.00,Wunderground v.1.15,2014-03-18 08:57:00,
2014-03-18 04:07:00,49.6,30.7,29.74,SSE,165,3.0,6.0,48,0.00,,,0.00,Wunderground v.1.15,2014-03-18 09:07:00,
2014-03-18 04:17:00,50.0,30.0,29.74,South,178,4.0,4.0,46,0.00,,,0.00,Wunderground v.1.15,2014-03-18 09:17:00,
2014-03-18 04:27:00,50.4,29.8,29.74,SSE,164,5.0,5.0,45,0.00,,,0.00,Wunderground v.1.15,2014-03-18 09:27:00,
2014-03-18 04:37:00,50.6,30.6,29.73,SE,145,5.0,5.0,46,0.00,,,0.00,Wunderground v.1.15,2014-03-18 09:37:00,
2014-03-18 04:47:00,50.3,30.8,29.72,South,173,5.0,7.0,47,0.00,,,0.00,Wunderground v.1.15,2014-03-18 09:47:00,
2014-03-18 04:57:00,50.6,31.1,29.72,SSE,156,7.0,7.0,47,0.00,,,0.00,Wunderground v.1.15,2014-03-18 09:57:00,
2014-03-18 05:07:00,50.9,31.4,29.71,SE,143,7.0,8.0,47,0.00,,,0.00,Wunderground v.1.15,2014-03-18 10:07:00,
2014-03-18 05:17:00,50.9,31.9,29.71,SE,143,8.0,9.0,48,0.00,,,0.00,Wunderground v.1.15,2014-03-18 10:17:00,
2014-03-18 05:27:00,50.9,32.4,29.71,South,183,7.0,7.0,49,0.00,,,0.00,Wunderground v.1.15,2014-03-18 10:27:00,
2014-03-18 05:37:00,51.0,33.0,29.70,South,178,6.0,6.0,50,0.00,,,0.00,Wunderground v.1.15,2014-03-18 10:37:00,
2014-03-18 05:47:00,50.7,33.2,29.70,South,173,6.0,6.0,51,0.00,,,0.00,Wunderground v.1.15,2014-03-18 10:47:00,
2014-03-18 05:57:00,50.7,33.7,29.70,SSE,156,7.0,9.0,52,0.00,,,0.00,Wunderground v.1.15,2014-03-18 10:57:00,
2014-03-18 06:07:00,50.6,34.1,29.70,South,180,7.0,7.0,53,0.00,,,0.00,Wunderground v.1.15,2014-03-18 11:07:00,
2014-03-18 06:17:00,50.7,34.2,29.70,SSE,161,7.0,7.0,53,0.00,,,0.00,Wunderground v.1.15,2014-03-18 11:17:00,
2014-03-18 06:27:00,50.9,34.4,29.70,South,173,7.0,7.0,53,0.00,,,0.00,Wunderground v.1.15,2014-03-18 11:27:00,
2014-03-18 06:37:00,50.3,34.7,29.72,South,178,6.0,6.0,55,0.00,,,0.00,Wunderground v.1.15,2014-03-18 11:37:00,
2014-03-18 06:47:00,50.0,34.9,29.72,South,177,6.0,6.0,56,0.00,,,0.00,Wunderground v.1.15,2014-03-18 11:47:00,
2014-03-18 06:57:00,50.1,35.0,29.72,SSE,165,7.0,7.0,56,0.00,,,0.00,Wunderground v.1.15,2014-03-18 11:57:00,
2014-03-18 07:07:00,50.3,35.6,29.72,SE,139,6.0,7.0,57,0.00,,,0.00,Wunderground v.1.15,2014-03-18 12:07:00,
2014-03-18 07:17:00,50.6,35.5,29.73,SE,139,7.0,9.0,56,0.00,,,0.00,Wunderground v.1.15,2014-03-18 12:17:00,
2014-03-18 07:27:00,50.7,36.0,29.73,South,172,8.0,9.0,57,0.00,,,0.00,Wunderground v.1.15,2014-03-18 12:27:00,
2014-03-18 07:37:00,50.9,36.2,29.74,SSE,167,8.0,8.0,57,0.00,,,0.00,Wunderground v.1.15,2014-03-18 12:37:00,
2014-03-18 07:47:00,50.7,36.5,29.74,SSE,165,7.0,7.0,58,0.00,,,0.00,Wunderground v.1.15,2014-03-18 12:47:00,
2014-03-18 07:57:00,50.6,36.4,29.74,SSE,161,6.0,9.0,58,0.00,,,0.00,Wunderground v.1.15,2014-03-18 12:57:00,
2014-03-18 08:07:00,50.7,36.5,29.74,South,182,7.0,10.0,58,0.00,,,0.00,Wunderground v.1.15,2014-03-18 13:07:00,
2014-03-18 08:17:00,51.2,36.9,29.75,South,184,6.0,7.0,58,0.00,,,0.00,Wunderground v.1.15,2014-03-18 13:17:00,
2014-03-18 08:27:00,51.6,37.3,29.75,South,177,7.0,7.0,58,0.00,,,0.00,Wunderground v.1.15,2014-03-18 13:27:00,
2014-03-18 08:37:00,52.5,37.7,29.75,SSE,150,7.0,13.0,57,0.00,,,0.00,Wunderground v.1.15,2014-03-18 13:37:00,
2014-03-18 08:47:00,53.5,38.2,29.75,South,184,8.0,10.0,56,0.00,,,0.00,Wunderground v.1.15,2014-03-18 13:47:00,
2014-03-18 08:57:00,54.6,38.3,29.75,SSE,161,9.0,9.0,54,0.00,,,0.00,Wunderground v.1.15,2014-03-18 13:57:00,
2014-03-18 09:07:00,55.5,38.1,29.76,SSW,202,10.0,15.0,52,0.00,,,0.00,Wunderground v.1.15,2014-03-18 14:07:00,
2014-03-18 09:17:00,56.4,38.5,29.76,South,180,12.0,18.0,51,0.00,,,0.00,Wunderground v.1.15,2014-03-18 14:17:00,
2014-03-18 09:27:00,57.4,38.9,29.76,South,176,11.0,13.0,50,0.00,,,0.00,Wunderground v.1.15,2014-03-18 14:27:00,
2014-03-18 09:38:00,58.2,38.6,29.76,South,177,10.0,13.0,48,0.00,,,0.00,Wunderground v.1.15,2014-03-18 14:38:00,
2014-03-18 09:47:00,58.8,39.7,29.76,SSE,167,11.0,11.0,49,0.00,,,0.00,Wunderground v.1.15,2014-03-18 14:47:00,
2014-03-18 09:57:00,59.4,38.6,29.76,SSE,150,10.0,16.0,46,0.00,,,0.00,Wunderground v.1.15,2014-03-18 14:57:00,
2014-03-18 10:07:00,60.3,38.9,29.77,SSE,165,11.0,11.0,45,0.00,,,0.00,Wunderground v.1.15,2014-03-18 15:07:00,
2014-03-18 10:17:00,61.2,39.7,29.77,South,172,12.0,12.0,45,0.00,,,0.00,Wunderground v.1.15,2014-03-18 15:17:00,
2014-03-18 10:27:00,62.0,40.4,29.77,SSE,154,14.0,14.0,45,0.00,,,0.00,Wunderground v.1.15,2014-03-18 15:27:00,
2014-03-18 10:37:00,62.6,40.4,29.76,South,169,13.0,13.0,44,0.00,,,0.00,Wunderground v.1.15,2014-03-18 15:37:00,
2014-03-18 10:47:00,63.4,41.1,29.77,SW,216,13.0,13.0,44,0.00,,,0.00,Wunderground v.1.15,2014-03-18 15:47:00,
2014-03-18 10:57:00,64.2,41.8,29.77,SSE,166,12.0,15.0,44,0.00,,,0.00,Wunderground v.1.15,2014-03-18 15:57:00,
2014-03-18 11:08:00,64.7,42.9,29.77,SSE,162,13.0,13.0,45,0.00,,,0.00,Wunderground v.1.15,2014-03-18 16:08:00,
2014-03-18 11:17:00,65.7,43.2,29.77,South,184,11.0,16.0,44,0.00,,,0.00,Wunderground v.1.15,2014-03-18 16:17:00,
2014-03-18 11:27:00,65.7,43.2,29.77,SSE,164,13.0,13.0,44,0.00,,,0.00,Wunderground v.1.15,2014-03-18 16:27:00,
2014-03-18 11:37:00,67.0,43.8,29.76,South,179,12.0,13.0,43,0.00,,,0.00,Wunderground v.1.15,2014-03-18 16:37:00,
2014-03-18 11:47:00,67.3,43.4,29.76,SSE,155,14.0,14.0,42,0.00,,,0.00,Wunderground v.1.15,2014-03-18 16:47:00,
2014-03-18 11:57:00,68.5,43.2,29.76,SSW,204,13.0,13.0,40,0.00,,,0.00,Wunderground v.1.15,2014-03-18 16:57:00,
2014-03-18 12:08:00,69.8,43.0,29.75,SSE,161,12.0,17.0,38,0.00,,,0.00,Wunderground v.1.15,2014-03-18 17:08:00,
2014-03-18 12:17:00,69.6,42.9,29.75,SE,146,13.0,13.0,38,0.00,,,0.00,Wunderground v.1.15,2014-03-18 17:17:00,
2014-03-18 12:27:00,70.6,44.4,29.75,South,191,11.0,11.0,39,0.00,,,0.00,Wunderground v.1.15,2014-03-18 17:27:00,
2014-03-18 12:38:00,71.1,43.5,29.75,SSE,164,12.0,12.0,37,0.00,,,0.00,Wunderground v.1.15,2014-03-18 17:38:00,
2014-03-18 12:47:00,72.0,42.1,29.75,SSW,209,12.0,12.0,34,0.00,,,0.00,Wunderground v.1.15,2014-03-18 17:47:00,
2014-03-18 12:57:00,72.7,41.9,29.75,SW,217,12.0,12.0,33,0.00,,,0.00,Wunderground v.1.15,2014-03-18 17:57:00,
2014-03-18 13:08:00,73.2,41.6,29.75,SSE,163,13.0,16.0,32,0.00,,,0.00,Wunderground v.1.15,2014-03-18 18:08:00,
2014-03-18 13:17:00,73.9,43.0,29.74,South,173,13.0,13.0,33,0.00,,,0.00,Wunderground v.1.15,2014-03-18 18:17:00,
2014-03-18 13:27:00,74.1,40.7,29.74,SSE,167,13.0,15.0,30,0.00,,,0.00,Wunderground v.1.15,2014-03-18 18:27:00,
2014-03-18 13:38:00,74.4,41.8,29.73,SSW,202,13.0,16.0,31,0.00,,,0.00,Wunderground v.1.15,2014-03-18 18:38:00,
2014-03-18 13:47:00,75.3,41.7,29.73,South,186,12.0,12.0,30,0.00,,,0.00,Wunderground v.1.15,2014-03-18 18:47:00,
2014-03-18 13:57:00,75.5,41.0,29.73,South,175,12.0,12.0,29,0.00,,,0.00,Wunderground v.1.15,2014-03-18 18:57:00,
2014-03-18 14:08:00,76.0,41.4,29.72,South,188,12.0,12.0,29,0.00,,,0.00,Wunderground v.1.15,2014-03-18 19:08:00,
2014-03-18 14:17:00,76.5,41.0,29.71,South,171,11.0,11.0,28,0.00,,,0.00,Wunderground v.1.15,2014-03-18 19:17:00,
2014-03-18 14:27:00,76.9,41.3,29.71,SSW,197,12.0,12.0,28,0.00,,,0.00,Wunderground v.1.15,2014-03-18 19:27:00,
2014-03-18 14:38:00,77.4,39.8,29.70,SSW,197,12.0,12.0,26,0.00,,,0.00,Wunderground v.1.15,2014-03-18 19:38:00,
2014-03-18 14:47:00,78.1,41.4,29.69,SSE,159,12.0,18.0,27,0.00,,,0.00,Wunderground v.1.15,2014-03-18 19:47:00,
2014-03-18 14:57:00,78.3,40.6,29.69,South,177,12.0,12.0,26,0.00,,,0.00,Wunderground v.1.15,2014-03-18 19:57:00,
2014-03-18 15:08:00,78.5,38.7,29.69,SSE,152,13.0,13.0,24,0.00,,,0.00,Wunderground v.1.15,2014-03-18 20:08:00,
2014-03-18 15:17:00,78.7,40.9,29.68,SSW,202,11.0,11.0,26,0.00,,,0.00,Wunderground v.1.15,2014-03-18 20:17:00,
2014-03-18 15:27:00,79.8,39.8,29.68,SE,135,11.0,11.0,24,0.00,,,0.00,Wunderground v.1.15,2014-03-18 20:27:00,
2014-03-18 15:38:00,79.6,39.6,29.68,South,172,12.0,12.0,24,0.00,,,0.00,Wunderground v.1.15,2014-03-18 20:38:00,
2014-03-18 15:47:00,80.1,40.0,29.67,South,170,11.0,13.0,24,0.00,,,0.00,Wunderground v.1.15,2014-03-18 20:47:00,
2014-03-18 15:57:00,80.1,42.1,29.67,SSE,150,11.0,11.0,26,0.00,,,0.00,Wunderground v.1.15,2014-03-18 20:57:00,
2014-03-18 16:08:00,80.7,39.4,29.67,South,187,10.0,10.0,23,0.00,,,0.00,Wunderground v.1.15,2014-03-18 21:08:00,
2014-03-18 16:17:00,80.5,40.4,29.66,ESE,121,12.0,12.0,24,0.00,,,0.00,Wunderground v.1.15,2014-03-18 21:17:00,
2014-03-18 16:27:00,80.5,41.4,29.66,SSE,150,11.0,17.0,25,0.00,,,0.00,Wunderground v.1.15,2014-03-18 21:27:00,
2014-03-18 16:38:00,81.1,40.9,29.66,SE,137,8.0,13.0,24,0.00,,,0.00,Wunderground v.1.15,2014-03-18 21:38:00,
2014-03-18 16:47:00,80.7,41.6,29.67,SSE,155,10.0,10.0,25,0.00,,,0.00,Wunderground v.1.15,2014-03-18 21:47:00,
2014-03-18 16:57:00,80.9,41.8,29.67,South,186,11.0,11.0,25,0.00,,,0.00,Wunderground v.1.15,2014-03-18 21:57:00,
2014-03-18 17:08:00,81.3,41.0,29.67,SSE,155,9.0,13.0,24,0.00,,,0.00,Wunderground v.1.15,2014-03-18 22:08:00,
2014-03-18 17:17:00,81.1,40.9,29.67,South,171,11.0,12.0,24,0.00,,,0.00,Wunderground v.1.15,2014-03-18 22:17:00,
2014-03-18 17:27:00,81.4,41.1,29.67,South,178,11.0,11.0,24,0.00,,,0.00,Wunderground v.1.15,2014-03-18 22:27:00,
2014-03-18 17:38:00,81.3,39.9,29.67,SSE,150,11.0,11.0,23,0.00,,,0.00,Wunderground v.1.15,2014-03-18 22:38:00,
2014-03-18 17:47:00,81.3,39.9,29.67,ESE,120,11.0,11.0,23,0.00,,,0.00,Wunderground v.1.15,2014-03-18 22:47:00,
2014-03-18 17:57:00,81.3,38.8,29.67,South,177,10.0,10.0,22,0.00,,,0.00,Wunderground v.1.15,2014-03-18 22:57:00,
2014-03-18 18:08:00,81.3,39.9,29.67,SSE,165,9.0,10.0,23,0.00,,,0.00,Wunderground v.1.15,2014-03-18 23:08:00,
2014-03-18 18:17:00,81.1,39.8,29.67,SE,142,10.0,10.0,23,0.00,,,0.00,Wunderground v.1.15,2014-03-18 23:17:00,
2014-03-18 18:27:00,81.3,39.9,29.67,South,173,8.0,9.0,23,0.00,,,0.00,Wunderground v.1.15,2014-03-18 23:27:00,
2014-03-18 18:38:00,80.7,39.4,29.68,SSE,165,9.0,9.0,23,0.00,,,0.00,Wunderground v.1.15,2014-03-18 23:38:00,
2014-03-18 18:47:00,80.0,40.0,29.69,SSE,157,8.0,8.0,24,0.00,,,0.00,Wunderground v.1.15,2014-03-18 23:47:00,
2014-03-18 18:57:00,79.6,40.7,29.69,SSE,156,6.0,10.0,25,0.00,,,0.00,Wunderground v.1.15,2014-03-18 23:57:00,
2014-03-18 19:08:00,78.8,40.0,29.69,SE,144,5.0,5.0,25,0.00,,,0.00,Wunderground v.1.15,2014-03-19 00:08:00,
2014-03-18 19:17:00,78.1,40.4,29.70,SSE,161,5.0,5.0,26,0.00,,,0.00,Wunderground v.1.15,2014-03-19 00:17:00,
2014-03-18 19:27:00,77.8,40.2,29.70,SSE,154,5.0,5.0,26,0.00,,,0.00,Wunderground v.1.15,2014-03-19 00:27:00,
2014-03-18 19:38:00,76.9,41.3,29.71,SE,132,5.0,5.0,28,0.00,,,0.00,Wunderground v.1.15,2014-03-19 00:38:00,
2014-03-18 19:47:00,76.0,41.4,29.71,SE,146,4.0,4.0,29,0.00,,,0.00,Wunderground v.1.15,2014-03-19 00:47:00,
2014-03-18 19:58:00,75.1,42.4,29.71,SE,140,3.0,3.0,31,0.00,,,0.00,Wunderground v.1.15,2014-03-19 00:58:00,
2014-03-18 20:08:00,74.2,43.2,29.72,SE,140,2.0,5.0,33,0.00,,,0.00,Wunderground v.1.15,2014-03-19 01:08:00,
2014-03-18 20:17:00,74.1,43.9,29.72,SE,140,2.0,4.0,34,0.00,,,0.00,Wunderground v.1.15,2014-03-19 01:17:00,
2014-03-18 20:27:00,74.1,43.9,29.72,SE,137,4.0,4.0,34,0.00,,,0.00,Wunderground v.1.15,2014-03-19 01:27:00,
2014-03-18 20:38:00,73.9,43.8,29.72,SE,130,3.0,6.0,34,0.00,,,0.00,Wunderground v.1.15,2014-03-19 01:38:00,
2014-03-18 20:47:00,73.5,43.4,29.74,SE,131,2.0,2.0,34,0.00,,,0.00,Wunderground v.1.15,2014-03-19 01:47:00,
2014-03-18 20:57:00,73.2,43.9,29.74,SE,135,2.0,2.0,35,0.00,,,0.00,Wunderground v.1.15,2014-03-19 01:57:00,
2014-03-18 21:08:00,73.4,43.3,29.74,SE,130,3.0,7.0,34,0.00,,,0.00,Wunderground v.1.15,2014-03-19 02:08:00,
2014-03-18 21:18:00,73.2,44.6,29.75,SSE,160,5.0,9.0,36,0.00,,,0.00,Wunderground v.1.15,2014-03-19 02:18:00,
2014-03-18 21:27:00,72.5,49.3,29.75,SSE,163,6.0,14.0,44,0.00,,,0.00,Wunderground v.1.15,2014-03-19 02:27:00,
2014-03-18 21:38:00,71.8,53.7,29.76,SE,138,9.0,12.0,53,0.00,,,0.00,Wunderground v.1.15,2014-03-19 02:38:00,
2014-03-18 21:47:00,71.1,54.1,29.77,SSE,153,10.0,10.0,55,0.00,,,0.00,Wunderground v.1.15,2014-03-19 02:47:00,
2014-03-18 21:57:00,70.5,55.0,29.77,South,169,8.0,8.0,58,0.00,,,0.00,Wunderground v.1.15,2014-03-19 02:57:00,
2014-03-18 22:08:00,70.0,55.5,29.77,SSE,160,9.0,9.0,60,0.00,,,0.00,Wunderground v.1.15,2014-03-19 03:08:00,
2014-03-18 22:18:00,69.3,55.7,29.78,SSE,148,8.0,8.0,62,0.00,,,0.00,Wunderground v.1.15,2014-03-19 03:18:00,
2014-03-18 22:28:00,68.6,55.9,29.78,SSE,155,7.0,14.0,64,0.00,,,0.00,Wunderground v.1.15,2014-03-19 03:28:00,
2014-03-18 22:38:00,68.1,55.9,29.79,SSE,153,9.0,9.0,65,0.00,,,0.00,Wunderground v.1.15,2014-03-19 03:38:00,
2014-03-18 22:47:00,67.3,56.0,29.80,SE,142,8.0,8.0,67,0.00,,,0.00,Wunderground v.1.15,2014-03-19 03:47:00,
2014-03-18 22:58:00,66.8,55.9,29.80,SSE,147,7.0,7.0,68,0.00,,,0.00,Wunderground v.1.15,2014-03-19 03:58:00,
2014-03-18 23:08:00,66.3,55.8,29.80,SSE,151,8.0,8.0,69,0.00,,,0.00,Wunderground v.1.15,2014-03-19 04:08:00,
2014-03-18 23:17:00,65.8,55.7,29.80,SSE,165,7.0,7.0,70,0.00,,,0.00,Wunderground v.1.15,2014-03-19 04:17:00,
2014-03-18 23:27:00,65.4,55.7,29.80,SSE,155,6.0,6.0,71,0.00,,,0.00,Wunderground v.1.15,2014-03-19 04:27:00,
2014-03-18 23:38:00,64.9,55.7,29.82,South,169,6.0,6.0,72,0.00,,,0.00,Wunderground v.1.15,2014-03-19 04:38:00,
2014-03-18 23:47:00,64.5,55.7,29.83,South,182,5.0,5.0,73,0.00,,,0.00,Wunderground v.1.15,2014-03-19 04:47:00,
2014-03-18 23:58:00,64.2,55.4,29.83,WNW,293,3.0,7.0,73,0.00,,,0.00,Wunderground v.1.15,2014-03-19 04:58:00,